EW7349 Weather Reports


time (UTC)temp
C
wind
direction
speed
KPH
gust
KPH
rain 1hr
cm
rain 24hr
cm
rain mn
cm
humidity
%
barometer
mb
20260506132545 16 109 0.0 4.8 0.10 0.10 0.10 87 1010.2
20260506132044 16 173 1.6 4.8 0.10 0.10 0.10 86 1010.1
20260506131545 16 109 1.6 11.3 0.08 0.08 0.08 86 1010.2
20260506131046 16 131 1.6 11.3 0.05 0.05 0.05 85 1010.4
20260506130540 16 195 1.6 6.4 0.03 0.03 0.03 85 1010.6
20260506130301 16 257 1.6 9.7 0.03 0.03 0.03 85 1010.4
20260506125540 16 221 1.6 9.7 0.03 0.03 0.03 84 1010.2
20260506125041 16 123 1.6 9.7 0.00 0.00 0.00 83 1010.3
20260506124542 17 221 1.6 9.7 0.00 0.00 0.00 83 1010.3
20260506124042 17 219 1.6 6.4 0.00 0.00 0.00 83 1010.2
20260506123802 17 137 1.6 6.4 0.00 0.00 0.00 83 1010.1
20260506123040 17 53 1.6 6.4 0.00 0.00 0.00 82 1010.0
20260506122543 17 209 1.6 6.4 0.00 0.00 0.00 82 1009.9
20260506122307 17 101 1.6 4.8 0.00 0.00 0.00 82 1010.0
20260506121541 17 202 1.6 4.8 0.00 0.00 0.00 81 1010.0
20260506121531 17 87 1.6 6.4 0.00 0.00 0.00 81 1010.0
20260506120541 17 222 1.6 6.4 0.00 0.00 0.00 80 1009.8
20260506120527 17 113 1.6 8.0 0.00 0.00 0.00 80 1009.9
20260506115810 17 130 1.6 8.0 0.00 0.00 0.00 79 1010.1
20260506115041 17 126 1.6 12.9 0.00 0.00 0.00 78 1010.2
20260506114540 17 132 1.6 12.9 0.00 0.00 0.00 77 1010.3
20260506114043 17 190 3.2 11.3 0.00 0.00 0.00 76 1010.3
20260506113535 18 277 3.2 11.3 0.00 0.00 0.00 76 1010.3
20260506113030 18 188 1.6 9.7 0.00 0.00 0.00 76 1010.2
20260506112523 18 163 3.2 11.3 0.00 0.00 0.00 75 1010.1
20260506112017 18 269 4.8 14.5 0.00 0.00 0.00 74 1010.0
20260506111511 18 74 3.2 14.5 0.00 0.00 0.00 73 1009.9
20260506111010 18 281 3.2 16.1 0.00 0.00 0.00 74 1009.8
20260506110734 18 81 4.8 16.1 0.00 0.00 0.00 73 1009.7
20260506110230 18 298 3.2 11.3 0.00 0.00 0.00 73 1009.6
20260506105506 18 232 3.2 12.9 0.00 0.00 0.00 73 1009.6
20260506105005 18 121 3.2 16.1 0.00 0.00 0.00 73 1009.6
20260506104504 18 63 3.2 16.1 0.00 0.00 0.00 73 1009.6
20260506104003 18 232 3.2 16.1 0.00 0.00 0.00 73 1009.6
20260506103502 18 143 3.2 19.3 0.00 0.00 0.00 73 1009.6
20260506103003 18 143 3.2 19.3 0.00 0.00 0.00 73 1009.5
20260506102505 18 207 4.8 19.3 0.00 0.00 0.00 73 1009.5
20260506102003 18 257 3.2 19.3 0.00 0.00 0.00 73 1009.5
20260506101502 18 132 3.2 14.5 0.00 0.00 0.00 72 1009.5
20260506101003 18 146 3.2 14.5 0.00 0.00 0.00 72 1009.5
20260506100500 18 223 3.2 16.1 0.00 0.00 0.00 72 1009.5
20260506100000 18 250 3.2 16.1 0.00 0.00 0.00 72 1009.6
20260506095502 18 200 3.2 14.5 0.00 0.00 0.00 72 1009.6
20260506095002 18 156 3.2 8.0 0.00 0.00 0.00 72 1009.5
20260506094455 18 115 3.2 11.3 0.00 0.00 0.00 72 1009.4
20260506094220 18 162 3.2 11.3 0.00 0.00 0.00 71 1009.5
20260506093443 18 179 3.2 8.0 0.00 0.00 0.00 71 1009.5
20260506092937 18 202 3.2 8.0 0.00 0.00 0.00 71 1009.6
20260506092431 18 175 3.2 14.5 0.00 0.00 0.00 71 1009.4
20260506091925 18 131 3.2 16.1 0.00 0.00 0.00 71 1009.4
20260506091419 18 115 3.2 16.1 0.00 0.00 0.00 70 1009.5
20260506090913 18 191 3.2 11.3 0.00 0.00 0.00 70 1009.5
20260506090406 18 262 3.2 11.3 0.00 0.00 0.00 70 1009.7
20260506085901 18 182 3.2 16.1 0.00 0.00 0.00 70 1009.7
20260506085619 18 288 3.2 16.1 0.00 0.00 0.00 70 1009.7
20260506085115 18 110 3.2 12.9 0.00 0.00 0.00 70 1009.8
20260506084344 18 128 4.8 16.1 0.00 0.00 0.00 69 1009.7
20260506083837 18 157 4.8 16.1 0.00 0.00 0.00 69 1009.7
20260506083331 18 191 3.2 11.3 0.00 0.00 0.00 69 1009.7
20260506083046 18 193 3.2 11.3 0.00 0.00 0.00 68 1009.8
20260506082805 18 245 3.2 16.1 0.00 0.00 0.00 68 1009.7
20260506081814 18 284 4.8 16.1 0.00 0.00 0.00 68 1009.7
20260506081757 18 241 3.2 16.1 0.00 0.00 0.00 67 1009.8
20260506080801 19 256 3.2 14.5 0.00 0.00 0.00 67 1009.8
20260506080255 19 96 3.2 14.5 0.00 0.00 0.00 67 1009.7
20260506073219 19 140 3.2 12.9 0.00 0.00 0.00 65 1009.8
20260506072714 19 18 3.2 12.9 0.00 0.00 0.00 65 1009.8
20260506072208 19 225 3.2 12.9 0.00 0.00 0.00 64 1009.8
20260506071701 20 119 3.2 12.9 0.00 0.00 0.00 64 1009.8
20260506071156 20 140 1.6 11.3 0.00 0.00 0.00 64 1009.8
20260506070656 20 103 3.2 16.1 0.00 0.00 0.00 63 1009.9
20260506070157 20 226 3.2 16.1 0.00 0.00 0.00 63 1009.9
20260506062150 20 212 3.2 11.3 0.00 0.00 0.00 62 1010.4
20260506061651 20 159 3.2 14.5 0.00 0.00 0.00 62 1010.3
20260506061148 20 248 3.2 14.5 0.00 0.00 0.00 61 1010.3
20260506060645 20 143 3.2 12.9 0.00 0.00 0.00 61 1010.3
20260506060146 20 205 3.2 12.9 0.00 0.00 0.00 61 1010.3
20260506051335 21 47 3.2 14.5 0.00 0.00 0.00 58 1010.6
20260506050605 21 115 3.2 14.5 0.00 0.00 0.00 58 1010.6
20260506044548 21 138 3.2 9.7 0.00 0.00 0.00 57 1010.8
20260506044048 21 139 3.2 6.4 0.00 0.00 0.00 57 1010.7
20260506043547 21 99 3.2 9.7 0.00 0.00 0.00 57 1010.6
20260506043048 21 102 3.2 11.3 0.00 0.00 0.00 56 1010.5
20260506042549 21 267 1.6 11.3 0.00 0.00 0.00 56 1010.7
20260506042048 21 302 3.2 12.9 0.00 0.00 0.00 55 1010.6
20260506041547 21 218 1.6 12.9 0.00 0.00 0.00 55 1010.6
20260506041536 21 58 1.6 6.4 0.00 0.00 0.00 55 1010.6
20260506040549 21 162 3.2 12.9 0.00 0.00 0.00 55 1010.7
20260506040316 21 148 3.2 12.9 0.00 0.00 0.00 55 1010.7
20260506035549 21 109 3.2 11.3 0.00 0.00 0.00 54 1010.6
20260506035048 21 155 3.2 11.3 0.00 0.00 0.00 55 1010.7
20260506034548 21 164 3.2 11.3 0.00 0.00 0.00 54 1010.6
20260506034048 21 169 3.2 12.9 0.00 0.00 0.00 54 1010.6
20260506033548 21 208 3.2 16.1 0.00 0.00 0.00 54 1010.5
20260506033050 21 161 3.2 16.1 0.00 0.00 0.00 54 1010.6
20260506032544 21 154 3.2 12.9 0.00 0.00 0.00 53 1010.6
20260506032038 21 144 3.2 6.4 0.00 0.00 0.00 53 1010.6
20260506031536 21 128 3.2 9.7 0.00 0.00 0.00 53 1010.6
20260506031038 21 115 1.6 9.7 0.00 0.00 0.00 52 1010.7
20260506030537 21 112 3.2 8.0 0.00 0.00 0.00 52 1010.7
20260506030035 21 191 1.6 12.9 0.00 0.00 0.00 52 1010.7
20260506025534 21 141 1.6 12.9 0.00 0.00 0.00 52 1010.7
20260506025034 21 126 1.6 12.9 0.00 0.00 0.00 51 1010.7
20260506024800 21 213 1.6 12.9 0.00 0.00 0.00 51 1010.8
20260506024035 21 130 1.6 4.8 0.00 0.00 0.00 50 1010.8
20260506023534 21 59 1.6 4.8 0.00 0.00 0.00 50 1010.8
20260506023254 21 74 0.0 4.8 0.00 0.00 0.00 49 1010.8
20260506022533 21 120 1.6 4.8 0.00 0.00 0.00 49 1010.8
20260506022251 21 98 1.6 6.4 0.00 0.00 0.00 49 1010.9
20260506021532 22 15 1.6 6.4 0.00 0.00 0.00 49 1010.9
20260506021030 22 216 1.6 6.4 0.00 0.00 0.00 48 1011.0
20260506020530 22 308 1.6 11.3 0.00 0.00 0.00 48 1011.0
20260506020030 22 148 1.6 11.3 0.00 0.00 0.00 47 1011.0
20260506015531 22 236 1.6 9.7 0.00 0.00 0.00 46 1010.9
20260506015030 22 286 1.6 9.7 0.00 0.00 0.00 46 1010.9
20260506014524 22 111 1.6 6.4 0.00 0.00 0.00 45 1010.8
20260506014017 22 128 1.6 8.0 0.00 0.00 0.00 44 1010.7
20260506013739 22 229 1.6 8.0 0.00 0.00 0.00 43 1010.7
20260506013005 22 111 1.6 4.8 0.00 0.00 0.00 43 1010.7
20260506012739 23 90 1.6 4.8 0.00 0.00 0.00 42 1010.5
20260506012004 23 128 1.6 3.2 0.00 0.00 0.00 42 1010.5
20260506011504 23 195 1.6 9.7 0.00 0.00 0.00 42 1010.5
20260506011004 23 250 1.6 9.7 0.00 0.00 0.00 41 1010.5
20260506010945 23 265 1.6 6.4 0.00 0.00 0.00 41 1010.3
20260506010004 23 271 3.2 11.3 0.00 0.00 0.00 41 1010.3
20260506005503 23 154 3.2 14.5 0.00 0.00 0.00 40 1010.3
20260506005003 23 208 1.6 14.5 0.00 0.00 0.00 40 1010.2
20260506004502 23 254 1.6 8.0 0.00 0.00 0.00 40 1010.1
20260506004223 23 156 1.6 8.0 0.00 0.00 0.00 39 1010.0
20260506003502 23 207 1.6 6.4 0.00 0.00 0.00 39 1010.0
20260506003004 24 248 1.6 8.0 0.00 0.00 0.00 38 1010.0
20260506002458 24 221 1.6 8.0 0.00 0.00 0.00 38 1009.9
20260506002437 24 127 1.6 12.9 0.00 0.00 0.00 37 1010.0
20260506001458 24 84 1.6 12.9 0.00 0.00 0.00 37 1009.9
20260506000958 24 137 1.6 6.4 0.00 0.00 0.00 37 1009.8
20260506000459 25 174 1.6 6.4 0.00 0.00 0.00 37 1009.7
20260505235958 25 167 1.6 6.4 0.00 0.00 0.00 36 1009.7
20260505235500 25 227 1.6 11.3 0.00 0.00 0.00 36 1009.7
20260505235000 25 243 3.2 11.3 0.00 0.00 0.00 35 1009.7
20260505234727 25 186 1.6 9.7 0.00 0.00 0.00 34 1009.6
20260505234221 25 251 1.6 8.0 0.00 0.00 0.00 35 1009.6
20260505233457 25 249 1.6 8.0 0.00 0.00 0.00 33 1009.6
20260505233451 26 17 1.6 8.0 0.00 0.00 0.00 33 1009.6
20260505232715 26 173 3.2 12.9 0.00 0.00 0.00 32 1009.6
20260505231958 26 176 4.8 12.9 0.00 0.00 0.00 31 1009.6
20260505231949 26 231 4.8 12.9 0.00 0.00 0.00 31 1009.7
20260505231000 26 174 3.2 12.9 0.00 0.00 0.00 31 1009.7
20260505230458 26 241 3.2 14.5 0.00 0.00 0.00 30 1009.6
20260505225959 26 249 4.8 14.5 0.00 0.00 0.00 30 1009.6
20260505225451 26 317 4.8 16.1 0.00 0.00 0.00 29 1009.7
20260505224944 26 254 4.8 24.1 0.00 0.00 0.00 28 1009.7
20260505224440 26 259 6.4 24.1 0.00 0.00 0.00 27 1009.7
20260505223934 26 183 4.8 22.5 0.00 0.00 0.00 28 1009.7
20260505223427 26 180 4.8 22.5 0.00 0.00 0.00 29 1009.7
20260505222922 26 167 3.2 12.9 0.00 0.00 0.00 32 1009.5
20260505222650 26 202 3.2 14.5 0.00 0.00 0.00 31 1009.5
20260505221909 26 300 3.2 14.5 0.00 0.00 0.00 31 1009.6
20260505221403 26 196 3.2 14.5 0.00 0.00 0.00 30 1009.5
20260505220900 26 298 3.2 14.5 0.00 0.00 0.00 31 1009.7
20260505220400 26 237 4.8 16.1 0.00 0.00 0.00 29 1009.6
20260505215859 26 127 6.4 16.1 0.00 0.00 0.00 29 1009.5
20260505215358 26 98 4.8 16.1 0.00 0.00 0.00 29 1009.4
20260505214900 26 196 6.4 22.5 0.00 0.00 0.00 29 1009.6
20260505214359 26 271 6.4 22.5 0.00 0.00 0.00 29 1009.5
20260505213858 26 266 4.8 25.7 0.00 0.00 0.00 28 1009.5
20260505213359 26 274 6.4 25.7 0.00 0.00 0.00 28 1009.5
20260505212859 27 333 6.4 19.3 0.00 0.00 0.00 28 1009.5
20260505212356 27 288 6.4 24.1 0.00 0.00 0.00 27 1009.4
20260505211857 27 205 6.4 27.4 0.00 0.00 0.00 28 1009.3
20260505211353 27 263 6.4 27.4 0.00 0.00 0.00 27 1009.4
20260505210853 27 153 6.4 16.1 0.00 0.00 0.00 29 1009.3
20260505210355 27 92 6.4 17.7 0.00 0.00 0.00 28 1009.4
20260505205854 27 261 4.8 17.7 0.00 0.00 0.00 29 1009.3
20260505205355 27 196 4.8 24.1 0.00 0.00 0.00 29 1009.4
20260505204854 27 216 6.4 24.1 0.00 0.00 0.00 28 1009.3
20260505204615 27 298 6.4 25.7 0.00 0.00 0.00 29 1009.4
20260505204107 28 154 4.8 25.7 0.00 0.00 0.00 29 1009.4
20260505203336 28 213 6.4 25.7 0.00 0.00 0.00 30 1009.4
20260505202830 28 286 6.4 25.7 0.00 0.00 0.00 29 1009.4
20260505202325 28 180 8.0 22.5 0.00 0.00 0.00 28 1009.4
20260505201818 28 271 8.0 24.1 0.00 0.00 0.00 27 1009.4
20260505201312 28 167 4.8 24.1 0.00 0.00 0.00 28 1009.4
20260505201044 29 259 6.4 29.0 0.00 0.00 0.00 28 1009.5
20260505200301 28 204 6.4 29.0 0.00 0.00 0.00 27 1009.4
20260505200019 28 256 6.4 25.7 0.00 0.00 0.00 28 1009.4
20260505195248 28 155 6.4 25.7 0.00 0.00 0.00 28 1009.5
20260505195004 28 207 6.4 25.7 0.00 0.00 0.00 30 1009.6
20260505194456 28 213 4.8 16.1 0.00 0.00 0.00 30 1009.5
20260505193958 29 140 4.8 16.1 0.00 0.00 0.00 31 1009.6
20260505193224 29 251 4.8 14.5 0.00 0.00 0.00 29 1009.7
20260505192719 30 215 4.8 14.5 0.00 0.00 0.00 28 1009.7
20260505192212 30 223 4.8 14.5 0.00 0.00 0.00 29 1009.7
20260505191707 29 248 4.8 27.4 0.00 0.00 0.00 29 1010.0
20260505191200 29 134 6.4 27.4 0.00 0.00 0.00 29 1009.8
20260505190655 29 222 6.4 20.9 0.00 0.00 0.00 28 1010.1
20260505190148 30 145 4.8 17.7 0.00 0.00 0.00 26 1010.1
20260505185643 29 164 6.4 19.3 0.00 0.00 0.00 30 1010.3
20260505185137 28 222 8.0 22.5 0.00 0.00 0.00 29 1010.3
20260505184631 28 161 6.4 22.5 0.00 0.00 0.00 29 1010.4
20260505184124 28 259 4.8 14.5 0.00 0.00 0.00 28 1010.5
20260505183618 29 134 6.4 17.7 0.00 0.00 0.00 29 1010.8
20260505183119 28 329 6.4 17.7 0.00 0.00 0.00 28 1010.6
20260505182619 29 182 6.4 17.7 0.00 0.00 0.00 30 1010.9
20260505182119 28 203 6.4 17.7 0.00 0.00 0.00 28 1010.7
20260505181619 29 250 4.8 12.9 0.00 0.00 0.00 29 1010.8
20260505181119 28 94 4.8 12.9 0.00 0.00 0.00 29 1010.9
20260505180620 28 126 4.8 16.1 0.00 0.00 0.00 29 1010.9
20260505180117 28 317 8.0 20.9 0.00 0.00 0.00 31 1010.9
20260505175619 28 178 6.4 20.9 0.00 0.00 0.00 30 1011.0
20260505175118 28 236 6.4 20.9 0.00 0.00 0.00 32 1011.2
20260505174618 28 198 6.4 20.9 0.00 0.00 0.00 31 1011.2
20260505174119 28 279 4.8 22.5 0.00 0.00 0.00 29 1011.1
20260505173834 28 246 6.4 22.5 0.00 0.00 0.00 30 1011.2
20260505173115 28 86 4.8 20.9 0.00 0.00 0.00 30 1011.0
20260505172617 29 217 3.2 16.1 0.00 0.00 0.00 30 1011.2
20260505172331 27 261 4.8 14.5 0.00 0.00 0.00 36 1011.1
20260505171617 27 42 4.8 17.7 0.00 0.00 0.00 33 1011.3
20260505171117 27 192 4.8 17.7 0.00 0.00 0.00 34 1011.2
20260505170611 27 240 6.4 20.9 0.00 0.00 0.00 34 1011.3
20260505170327 27 269 6.4 20.9 0.00 0.00 0.00 35 1011.4
20260505165820 27 240 4.8 16.1 0.00 0.00 0.00 36 1011.4
20260505165052 27 179 6.4 20.9 0.00 0.00 0.00 37 1011.5
20260505164546 27 201 4.8 20.9 0.00 0.00 0.00 36 1011.7
20260505164041 27 234 6.4 17.7 0.00 0.00 0.00 37 1011.7
20260505163804 26 209 6.4 22.5 0.00 0.00 0.00 37 1011.8
20260505163028 26 190 6.4 22.5 0.00 0.00 0.00 37 1012.0
20260505162523 26 234 4.8 20.9 0.00 0.00 0.00 37 1012.0
20260505162024 26 210 4.8 20.9 0.00 0.00 0.00 38 1012.2
20260505161524 26 192 4.8 17.7 0.00 0.00 0.00 38 1012.2
20260505161023 26 111 4.8 17.7 0.00 0.00 0.00 39 1012.3
20260505160523 26 141 4.8 16.1 0.00 0.00 0.00 40 1012.4
20260505153022 25 142 3.2 14.5 0.00 0.00 0.00 43 1012.5
20260505153010 25 144 3.2 12.9 0.00 0.00 0.00 41 1012.5
20260505152019 25 252 3.2 11.3 0.00 0.00 0.00 41 1012.5
20260505151521 24 207 3.2 11.3 0.00 0.00 0.00 43 1012.4
20260505151018 24 333 4.8 17.7 0.00 0.00 0.00 44 1012.5
20260505150518 23 180 3.2 17.7 0.00 0.00 0.00 46 1012.5
20260505140516 21 140 1.6 8.0 0.00 0.00 0.00 52 1012.6